This is the latest recevied weather packets stored in our database for station/object DB5ZQ. If no packets are shown the sender has not sent any weather packets the latest 10 day(s).
| Time | Temp. | Humidity | Pressure | Rain* | Wind** | Luminosity | Snow |
|---|---|---|---|---|---|---|---|
| 1787940797 | 24.44° C | 56% | 1007.9 hPa | 0 mm | - | - | - |
| 1787940497 | 24.44° C | 55% | 1007.9 hPa | 0 mm | - | - | - |
| 1787940196 | 24.44° C | 55% | 1007.7 hPa | 0 mm | - | - | - |
| 1787939896 | 24.44° C | 54% | 1007.6 hPa | 0 mm | - | - | - |
| 1787939596 | 24.44° C | 54% | 1007.6 hPa | 0 mm | - | - | - |
| 1787939296 | 24.44° C | 54% | 1007.5 hPa | 0 mm | - | - | - |
| 1787938995 | 25° C | 53% | 1007.5 hPa | 0 mm | - | - | - |
| 1787938695 | 25° C | 52% | 1007.4 hPa | 0 mm | - | - | - |
| 1787938395 | 25.56° C | 50% | 1007.4 hPa | 0 mm | - | - | - |
| 1787938094 | 25.56° C | 50% | 1007.2 hPa | 0 mm | - | - | - |
| 1787937794 | 25.56° C | 49% | 1007.1 hPa | 0 mm | - | - | - |
| 1787937494 | 26.11° C | 49% | 1007 hPa | 0 mm | - | - | - |
| 1787937194 | 26.11° C | 48% | 1007.1 hPa | 0 mm | - | - | - |
| 1787936893 | 26.11° C | 48% | 1007.2 hPa | 0 mm | - | - | - |
| 1787936593 | 26.67° C | 46% | 1007.2 hPa | 0 mm | - | - | - |
| 1787936293 | 26.67° C | 45% | 1007.3 hPa | 0 mm | - | - | - |
| 1787935993 | 27.22° C | 46% | 1007.3 hPa | 0 mm | - | - | - |
| 1787935692 | 27.22° C | 45% | 1007.2 hPa | 0 mm | - | - | - |
| 1787935392 | 27.22° C | 44% | 1007.1 hPa | 0 mm | - | - | - |
| 1787935092 | 27.78° C | 44% | 1007 hPa | 0 mm | - | - | - |
| 1787934791 | 27.22° C | 43% | 1006.9 hPa | 0 mm | - | - | - |
| 1787934491 | 27.22° C | 43% | 1007 hPa | 0 mm | - | - | - |
| 1787934191 | 27.22° C | 43% | 1007 hPa | 0 mm | - | - | - |
| 1787933890 | 27.22° C | 42% | 1007 hPa | 0 mm | - | - | - |
| 1787933590 | 27.22° C | 42% | 1006.9 hPa | 0 mm | - | - | - |
* Rain latest hour (hover to see other rain measurements)
** Current wind speed in m/s (hover to see current wind gust speed)